Flag for U.S.A. Weather past 2 weeks in Fayetteville, North Carolina, U.S.A.

Now
57 °F

Light rain. Mostly cloudy.


Feels Like: 57 °F
Forecast: 51 / 56 °F
Wind: 3 mph from North

Location: Fayetteville Regional Airport


UV Index: 0 (Low)

Visibility: 6 mi


Pressure: 30.23 "Hg

Humidity: 72%

Dew point: 48 °F

Location of FayettevilleLocation

Historic Weather in Fayetteville

°F

Fayetteville temperature yesterday

Maximum temperature yesterday: 66 °F (at 4:53 PM)
Minimum temperature yesterday: 35 °F (at 4:53 AM)
Average temperature yesterday: 51 °F

Past Weeks' High & Low Weather Summary

 TemperatureHumidityPressure
High85 °F (Apr 4, 3:53 PM)97% (Apr 13, 7:03 AM)30.51 "Hg (Apr 13, 7:03 AM)
Low35 °F (Apr 17, 4:53 AM)23% (Apr 4, 3:53 PM)29.57 "Hg (Apr 8, 1:53 PM)
Average62 °F60%30.03 "Hg
* Reported Apr 3 7:53 PM — Apr 18 7:53 PM, Fayetteville, Weather by CustomWeather, © 2014

Note: Actual official high and low records may vary slightly from our data, if they occured in-between our weather recording intervals... More about our weather records

Advertising

Historic Weather Conditions — Data for Previous 24 hours

 ConditionsComfort  
Time TempWeatherWind HumidityBarometerVisibility
7:53 PM
Apr 18
61 °FOvercast.8 mph56%30.20 "Hg10 mi
6:53 PM62 °FOvercast.7 mph52%30.19 "Hg10 mi
5:53 PM63 °FOvercast.6 mph50%30.22 "Hg10 mi
4:53 PM64 °FOvercast.8 mph47%30.22 "Hg10 mi
3:53 PM65 °FOvercast.12 mph44%30.24 "Hg10 mi
2:53 PM65 °FPassing clouds.10 mph42%30.27 "Hg10 mi
1:53 PM62 °FPartly sunny.14 mph41%30.30 "Hg10 mi
12:53 PM58 °FPartly sunny.10 mph47%30.35 "Hg10 mi
11:53 AM55 °FOvercast.12 mph53%30.37 "Hg10 mi
10:53 AM52 °FPartly sunny.12 mph57%30.37 "Hg10 mi
9:53 AM50 °FSunny.12 mph61%30.37 "Hg10 mi
8:53 AM47 °FSunny.13 mph71%30.39 "Hg10 mi
7:53 AM44 °FSunny.13 mph79%30.38 "Hg10 mi
6:53 AM42 °FPassing clouds.12 mph85%30.37 "Hg10 mi
5:53 AM43 °FClear.12 mph82%30.37 "Hg10 mi
4:53 AM44 °FPassing clouds.12 mph82%30.37 "Hg10 mi
3:53 AM46 °FOvercast.8 mph79%30.37 "Hg10 mi
2:53 AM47 °FPassing clouds.8 mph74%30.40 "Hg10 mi
1:53 AM48 °FClear.6 mph77%30.39 "Hg10 mi
12:53 AM50 °FClear.9 mph74%30.40 "Hg10 mi
11:53 PM
Apr 17
52 °FClear.8 mph75%30.41 "Hg10 mi
10:53 PM51 °FClear.6 mph74%30.42 "Hg10 mi
9:53 PM53 °FClear.5 mph69%30.41 "Hg10 mi
Weather by CustomWeather, © 2014

See weather overview